Tracking 27401 objects as of 4-Jun-2023
HD Live streaming from Space Station
objects crossing your sky now

FENGYUN 1C DEB

Track FENGYUN 1C DEB now!
10-day predictions


NORAD ID: 33716
Int'l Code: 1999-025DHD
Perigee: 726.3 km
Apogee: 863.1 km
Inclination: 98.9 °
Period: 100.6 minutes
Semi major axis: 7165 km
RCS: 0.0093 m2 (small)
Launch date: May 10, 1999
Source: People's Republic of China (PRC)
Launch site: Taiyaun Space Center, China (TSC)

Note: This is SATELLITE DEBRIS
Your satellite tracking list
Your tracking list is empty




NASA's NSSDC Master Catalog

Two Line Element Set (TLE):
1 33716U 99025DHD 23154.50722149  .00000288  00000-0  12051-3 0  9990
2 33716  98.9018  48.2174 0095422 175.9222 184.2759 14.31255036817207
Source of the keplerian elements: AFSPC